Bullsbrook Pearce, Australia

4:56 PM AWST on June 26, 2017 (GMT +0800)
Pearce (Military)

Weather History for YPEA - December, 2012

Change the Weather History Date:

Friday, December 14, 2012

  Actual Average (YPPH) Record (YPPH)
Temperature  
Mean Temperature 71 °F -  
Max Temperature 82 °F 83 °F 105 °F (2004)
Min Temperature 60 °F 59 °F 50 °F (2010)
Cooling Degree Days 6    
Growing Degree Days 21 (Base 50)    
Moisture  
Dew Point 57 °F    
Average Humidity 65    
Maximum Humidity 88    
Minimum Humidity 35    
Precipitation  
Precipitation 0.00 in - - ()
Sea Level Pressure  
Sea Level Pressure 29.98 in    
Wind  
Wind Speed 7 mph ()    
Max Wind Speed 17 mph    
Max Gust Speed -    
Visibility 6.8 miles    
Events      
Averages and records for this station are not official NWS values.
T = Trace of Precipitation, MM = Missing Value Source: Averaged Metar Reports

Daily Weather History Graph

Daily Weather History Graph

Search for Another Location

Airport or City:

Trip Planner

Search our weather history database for the weather conditions in past years. The results will help you decide how hot, cold, wet, or windy it might be!

Date:

Astronomy

Dec. 14, 2012 Rise Set
Actual Time 5:04 AM AWST 7:16 PM AWST
Civil Twilight 4:36 AM AWST 7:44 PM AWST
Nautical Twilight 4:02 AM AWST 8:19 PM AWST
Astronomical Twilight 3:25 AM AWST 8:56 PM AWST
Moon 5:51 AM AWST (12/14) 8:09 PM AWST (12/14)
Length of Visible Light 15h 08m
Length of Day
14h 11m
New Moon, 1% of the Moon is Illuminated
Dec 14
New Moon
Dec 20
First Quarter
Dec 28
Full
Jan 5
Last Quarter
Jan 12
New

Hourly Weather History & Observations

Time (AWST) Temp. Heat Index Dew Point Humidity Pressure Visibility Wind Dir Wind Speed Gust Speed Precip Events Conditions
12:00 AM 67 °F - 60 °F 73% 29.94 in - SSE 4.6 mph - -  
12:00 AM 66.2 °F - 60.8 °F 83% 29.92 in 6.2 mi SSE 4.6 mph - N/A   Mostly Cloudy
1:00 AM 64.4 °F - 59.0 °F 83% 29.92 in 6.2 mi South 8.1 mph - N/A   Scattered Clouds
2:00 AM 64.4 °F - 59.0 °F 83% 29.92 in 6.2 mi SSE 4.6 mph - N/A   Unknown
3:00 AM 63 °F - 59 °F 81% 29.94 in - SSE 4.6 mph - -  
3:00 AM 62.6 °F - 59.0 °F 88% 29.95 in 6.2 mi SSE 4.6 mph - N/A   Unknown
4:00 AM 62.6 °F - 59.0 °F 88% 29.95 in 6.2 mi ESE 5.8 mph - N/A   Unknown
5:00 AM 62.6 °F - 59.0 °F 88% 29.95 in 6.2 mi SE 4.6 mph - N/A   Unknown
6:00 AM 65 °F - 57 °F 69% 29.98 in - SSE 3.5 mph - -  
6:00 AM 66.2 °F - 57.2 °F 73% 29.98 in - SSE 3.5 mph - N/A   Clear
8:00 AM 69.8 °F - 55.4 °F 60% 30.01 in 6.2 mi SSW 10.4 mph - N/A   Scattered Clouds
9:00 AM 72 °F - 56 °F 46% 30.01 in 19 mi South 9.2 mph - -   Partly Cloudy
9:00 AM 71.6 °F - 55.4 °F 57% 30.01 in 6.2 mi South 9.2 mph - N/A   Partly Cloudy
10:00 AM 75.2 °F - 55.4 °F 50% 30.01 in 6.2 mi SSE 12.7 mph - N/A   Mostly Cloudy
11:00 AM 75.2 °F - 55.4 °F 50% 30.01 in 6.2 mi SW 8.1 mph - N/A   Scattered Clouds
12:00 PM 78.8 °F - 55.4 °F 44% 29.98 in 6.2 mi SSW 9.2 mph - N/A   Scattered Clouds
1:00 PM 78.8 °F - 53.6 °F 42% 29.98 in 6.2 mi SW 4.6 mph - N/A   Partly Cloudy
2:00 PM 80.6 °F 80.5 °F 55.4 °F 42% 29.95 in 6.2 mi SW 9.2 mph - N/A   Partly Cloudy
3:00 PM 79 °F - 56 °F 35% 29.96 in - SSW 13.8 mph - -  
3:00 PM 78.8 °F - 55.4 °F 44% 29.95 in 6.2 mi SSW 13.8 mph - N/A   Unknown
4:00 PM 78.8 °F - 59.0 °F 51% 29.95 in 6.2 mi SW 17.3 mph - N/A   Unknown
5:00 PM 77.0 °F - 59.0 °F 54% 29.95 in 6.2 mi WSW 17.3 mph - N/A   Unknown
6:00 PM 73.4 °F - 57.2 °F 57% 29.98 in 6.2 mi SW 17.3 mph - N/A   Unknown
7:00 PM 69.8 °F - 59.0 °F 68% 29.98 in 6.2 mi SSW 17.3 mph - N/A   Unknown
8:00 PM 66.2 °F - 59.0 °F 78% 30.01 in 6.2 mi SW 11.5 mph - N/A   Unknown
9:00 PM 66 °F - 58 °F 69% 30.03 in - SSW 12.7 mph - -  
9:00 PM 66.2 °F - 59.0 °F 78% 30.04 in 6.2 mi South 12.7 mph - N/A   Unknown
10:00 PM 64.4 °F - 57.2 °F 77% 30.04 in 6.2 mi South 9.2 mph - N/A   Unknown
11:00 PM 62.6 °F - 57.2 °F 82% 30.04 in 6.2 mi South 5.8 mph - N/A   Unknown